Starlink 34750

operational
NORAD ID: 65061 Int'l Des: 2025-165 Owner: SPXS Country: US Constellation: starlink
LEOCIRCULARRETROGRADESSO

About Starlink 34750

Description loading...

Live Position

Loading 3D Globe...

Upcoming Passes

Altitude History

Altitude vs Time

uPlot chart will show altitude changes over time

Two-Line Element Set

1 65061U 25165F 26063.16293667 .00009718 00000-0 67656-3 0 9992
2 65061 97.6028 141.8547 0000830 76.0511 284.0808 15.05663247 33963
Epoch: Mar 4, 2026 • Age: 18 hours

Current Status

Altitude 551.5 km
Velocity 7.59 km/s
Sub-Earth Point 13.03°N, 63.32°E
Launch Date Jul 31, 2025
Age 0.5 years
Type internet

Technical Details

Classification Payload
Mass 575.00 kg
Dry Mass 530.00 kg
Total Mass 575.00 kg
Length 0.30 m
Diameter 4.10 m
Span 29.00 m
Shape Box + pan
Manufacturer SPXS
Bus Type Starlink V2MO
Phase Status In Orbit
Owner/State SPXS/US

Large Constellations

Loading constellations...